When you browse on this site, cookies collect data to enhance your experience and personalize the content and advertising you see.
Visit our Privacy Policy to learn more. By continuing to use the site, you agree to this use of cookies and data.
  • In Österreich
  • Länderverzeichnis
  • Für 7 Tage
  • Wassertemperatur
  • Wetterkarte
  • News
  • Widgets
  • user-avatar
    Anmelden

    Stündliche Wetter Bezha

    Heute, 2 April, Donnerstag

    Zeit Temperatur Niederschläge Wind Luftdruck Luftfeuchtigkeit
    00:00 +6°C° 0.2 mm 1 m/S 737 mmHg 94%
    01:00 +6°C° 0.2 mm 1 m/S 736 mmHg 95%
    02:00 +6°C° 0.2 mm 1 m/S 736 mmHg 95%
    03:00 +6°C° 0 mm 1 m/S 736 mmHg 96%
    04:00 +4°C° 0 mm 2 m/S 736 mmHg 96%
    05:00 +4°C° 0 mm 2 m/S 737 mmHg 96%
    06:00 +4°C° 0 mm 3 m/S 737 mmHg 93%
    07:00 +7°C° 0 mm 3 m/S 738 mmHg 89%
    08:00 +9°C° 0 mm 3 m/S 739 mmHg 85%
    09:00 +11°C° 0 mm 3 m/S 739 mmHg 78%
    10:00 +12°C° 0 mm 3 m/S 739 mmHg 71%
    11:00 +14°C° 0 mm 3 m/S 739 mmHg 64%
    12:00 +15°C° 0 mm 4 m/S 739 mmHg 61%
    13:00 +15°C° 0 mm 4 m/S 739 mmHg 59%
    14:00 +17°C° 0 mm 4 m/S 739 mmHg 56%
    15:00 +15°C° 0.1 mm 4 m/S 739 mmHg 61%
    16:00 +15°C° 0.1 mm 4 m/S 739 mmHg 66%
    17:00 +14°C° 0.1 mm 3 m/S 739 mmHg 71%
    18:00 +12°C° 0 mm 3 m/S 740 mmHg 76%
    19:00 +10°C° 0 mm 3 m/S 740 mmHg 82%
    20:00 +9°C° 0 mm 3 m/S 741 mmHg 88%
    21:00 +8°C° 0 mm 2 m/S 740 mmHg 89%
    22:00 +8°C° 0 mm 2 m/S 740 mmHg 89%
    23:00 +8°C° 0 mm 1 m/S 740 mmHg 90%

    Morgen, 3 April, Freitag

    Zeit Temperatur Niederschläge Wind Luftdruck Luftfeuchtigkeit
    00:00 +8°C° 0 mm 1 m/S 740 mmHg 90%
    01:00 +8°C° 0 mm 1 m/S 740 mmHg 90%
    02:00 +8°C° 0 mm 1 m/S 740 mmHg 90%
    03:00 +7°C° 0 mm 1 m/S 740 mmHg 91%
    04:00 +7°C° 0 mm 1 m/S 740 mmHg 91%
    05:00 +7°C° 0 mm 1 m/S 740 mmHg 91%
    06:00 +9°C° 0 mm 1 m/S 740 mmHg 85%
    07:00 +11°C° 0 mm 1 m/S 740 mmHg 78%
    08:00 +14°C° 0 mm 1 m/S 740 mmHg 71%
    09:00 +15°C° 0 mm 1 m/S 740 mmHg 65%
    10:00 +18°C° 0 mm 1 m/S 740 mmHg 58%
    11:00 +20°C° 0 mm 1 m/S 740 mmHg 52%
    12:00 +21°C° 0 mm 1 m/S 740 mmHg 49%
    13:00 +20°C° 0 mm 2 m/S 740 mmHg 46%
    14:00 +21°C° 0 mm 2 m/S 739 mmHg 42%
    15:00 +20°C° 0 mm 2 m/S 739 mmHg 48%
    16:00 +19°C° 0 mm 2 m/S 739 mmHg 54%
    17:00 +18°C° 0 mm 2 m/S 739 mmHg 60%
    18:00 +16°C° 0 mm 1 m/S 739 mmHg 64%
    19:00 +14°C° 0 mm 1 m/S 739 mmHg 69%
    20:00 +11°C° 0 mm 1 m/S 739 mmHg 74%
    21:00 +11°C° 0 mm 1 m/S 739 mmHg 75%
    22:00 +11°C° 0 mm 1 m/S 739 mmHg 76%
    23:00 +11°C° 0 mm 1 m/S 739 mmHg 77%

    übermorgen, 4 April, Samstag

    Zeit Temperatur Niederschläge Wind Luftdruck Luftfeuchtigkeit
    00:00 +11°C° 0 mm 1 m/S 738 mmHg 78%
    01:00 +10°C° 0 mm 1 m/S 738 mmHg 79%
    02:00 +10°C° 0 mm 1 m/S 738 mmHg 81%
    03:00 +9°C° 0 mm 2 m/S 738 mmHg 82%
    04:00 +9°C° 0 mm 2 m/S 737 mmHg 83%
    05:00 +9°C° 0 mm 3 m/S 737 mmHg 85%
    06:00 +10°C° 0 mm 4 m/S 737 mmHg 80%
    07:00 +12°C° 0 mm 5 m/S 738 mmHg 75%
    08:00 +13°C° 0 mm 6 m/S 738 mmHg 70%
    09:00 +14°C° 0 mm 6 m/S 738 mmHg 70%
    10:00 +14°C° 0 mm 7 m/S 738 mmHg 69%
    11:00 +15°C° 0 mm 7 m/S 739 mmHg 69%
    12:00 +15°C° 0.1 mm 7 m/S 738 mmHg 73%
    13:00 +14°C° 0.1 mm 6 m/S 738 mmHg 77%
    14:00 +14°C° 0.1 mm 6 m/S 738 mmHg 80%
    15:00 +14°C° 0 mm 6 m/S 738 mmHg 81%
    16:00 +14°C° 0 mm 5 m/S 738 mmHg 82%
    17:00 +14°C° 0 mm 5 m/S 738 mmHg 82%
    18:00 +13°C° 0 mm 5 m/S 739 mmHg 85%
    19:00 +13°C° 0 mm 5 m/S 739 mmHg 87%
    20:00 +12°C° 0 mm 5 m/S 739 mmHg 90%
    21:00 +12°C° 0 mm 5 m/S 740 mmHg 91%
    22:00 +12°C° 0 mm 5 m/S 740 mmHg 93%
    23:00 +12°C° 0 mm 4 m/S 740 mmHg 95%

    5 April, Sonntag

    Zeit Temperatur Niederschläge Wind Luftdruck Luftfeuchtigkeit
    00:00 +12°C° 0 mm 5 m/S 739 mmHg 95%
    01:00 +12°C° 0 mm 5 m/S 739 mmHg 94%
    02:00 +12°C° 0 mm 5 m/S 739 mmHg 94%
    03:00 +12°C° 0 mm 5 m/S 739 mmHg 94%
    04:00 +12°C° 0 mm 5 m/S 739 mmHg 93%
    05:00 +12°C° 0 mm 5 m/S 739 mmHg 93%
    06:00 +13°C° 0 mm 6 m/S 740 mmHg 89%
    07:00 +14°C° 0 mm 6 m/S 740 mmHg 85%
    08:00 +16°C° 0 mm 6 m/S 740 mmHg 81%
    09:00 +16°C° 0.3 mm 7 m/S 741 mmHg 80%
    10:00 +17°C° 0.3 mm 7 m/S 741 mmHg 78%
    11:00 +18°C° 0.3 mm 7 m/S 741 mmHg 76%
    12:00 +18°C° 0.7 mm 7 m/S 741 mmHg 76%
    13:00 +20°C° 0.7 mm 7 m/S 740 mmHg 75%
    14:00 +20°C° 0.7 mm 6 m/S 740 mmHg 75%
    15:00 +19°C° 0.5 mm 5 m/S 740 mmHg 78%
    16:00 +19°C° 0.5 mm 5 m/S 740 mmHg 81%
    17:00 +18°C° 0.5 mm 4 m/S 740 mmHg 84%
    18:00 +17°C° 0.1 mm 4 m/S 741 mmHg 87%
    19:00 +15°C° 0.1 mm 4 m/S 741 mmHg 91%
    20:00 +14°C° 0.1 mm 3 m/S 742 mmHg 94%
    21:00 +14°C° 0.2 mm 3 m/S 742 mmHg 95%
    22:00 +14°C° 0.2 mm 3 m/S 742 mmHg 96%
    23:00 +14°C° 0.2 mm 3 m/S 742 mmHg 97%

    6 April, Montag

    Zeit Temperatur Niederschläge Wind Luftdruck Luftfeuchtigkeit
    00:00 +14°C° 0 mm 2 m/S 742 mmHg 97%
    01:00 +14°C° 0 mm 2 m/S 742 mmHg 97%
    02:00 +14°C° 0 mm 2 m/S 742 mmHg 98%
    03:00 +14°C° 0 mm 1 m/S 742 mmHg 97%
    04:00 +14°C° 0 mm 1 m/S 742 mmHg 97%
    05:00 +14°C° 0 mm 1 m/S 743 mmHg 97%
    06:00 +15°C° 0 mm 1 m/S 743 mmHg 93%
    07:00 +16°C° 0 mm 1 m/S 743 mmHg 89%
    08:00 +17°C° 0 mm 2 m/S 744 mmHg 84%
    09:00 +19°C° 0.1 mm 2 m/S 744 mmHg 76%
    10:00 +20°C° 0.1 mm 2 m/S 744 mmHg 67%
    11:00 +21°C° 0.1 mm 2 m/S 745 mmHg 59%
    12:00 +23°C° 0.1 mm 2 m/S 745 mmHg 57%
    13:00 +22°C° 0.1 mm 3 m/S 744 mmHg 55%
    14:00 +24°C° 0.1 mm 3 m/S 744 mmHg 53%
    15:00 +22°C° 0.1 mm 3 m/S 744 mmHg 59%
    16:00 +21°C° 0.1 mm 3 m/S 744 mmHg 66%
    17:00 +20°C° 0.1 mm 3 m/S 744 mmHg 72%
    18:00 +18°C° 0 mm 2 m/S 745 mmHg 79%
    19:00 +16°C° 0 mm 2 m/S 745 mmHg 86%
    20:00 +14°C° 0 mm 1 m/S 746 mmHg 92%
    21:00 +14°C° 0 mm 1 m/S 746 mmHg 93%
    22:00 +14°C° 0 mm 1 m/S 746 mmHg 94%
    23:00 +12°C° 0 mm 0 m/S 746 mmHg 95%

    7 April, Dienstag

    Zeit Temperatur Niederschläge Wind Luftdruck Luftfeuchtigkeit
    00:00 +12°C° 0 mm 0 m/S 746 mmHg 95%
    01:00 +13°C° 0 mm 0 m/S 745 mmHg 94%
    02:00 +14°C° 0 mm 1 m/S 745 mmHg 94%
    03:00 +14°C° 0 mm 1 m/S 745 mmHg 94%
    04:00 +14°C° 0 mm 1 m/S 745 mmHg 93%
    05:00 +14°C° 0 mm 1 m/S 745 mmHg 92%
    06:00 +16°C° 0 mm 1 m/S 745 mmHg 87%
    07:00 +18°C° 0 mm 1 m/S 745 mmHg 82%
    08:00 +18°C° 0 mm 2 m/S 745 mmHg 77%
    09:00 +20°C° 0 mm 2 m/S 746 mmHg 72%
    10:00 +21°C° 0 mm 2 m/S 746 mmHg 66%
    11:00 +23°C° 0 mm 2 m/S 746 mmHg 61%
    12:00 +24°C° 0 mm 2 m/S 746 mmHg 57%
    13:00 +24°C° 0 mm 1 m/S 745 mmHg 54%
    14:00 +25°C° 0 mm 1 m/S 745 mmHg 51%
    15:00 +24°C° 0 mm 2 m/S 745 mmHg 56%
    16:00 +23°C° 0 mm 2 m/S 745 mmHg 62%
    17:00 +21°C° 0 mm 2 m/S 745 mmHg 68%
    18:00 +19°C° 0 mm 2 m/S 745 mmHg 75%
    19:00 +18°C° 0 mm 2 m/S 745 mmHg 81%
    20:00 +16°C° 0 mm 2 m/S 746 mmHg 88%
    21:00 +16°C° 0 mm 1 m/S 746 mmHg 88%
    22:00 +16°C° 0 mm 1 m/S 746 mmHg 89%
    23:00 +15°C° 0 mm 0 m/S 746 mmHg 89%
    Mehr zeigen